Location: Central Falls
(41.8900°N, 71.3929°W)
Time: 03:56:19
(UTC+00:00)

Vanguard 2 Rocket - Pass Details

Date: 09 December 2023
Orbit: 555 x 3309 km, 32.9° (Epoch: 01 March)

Event Time Altitude Azimuth Distance (km) Brightness Sun altitude
Rises 22:08:19 0° 274° (W) 6,810 12.7 -9.8°
Reaches altitude 10° 22:12:41 10° 270° (W) 6,000 12.3 -10.6°
Maximum altitude 22:31:38 55° 200° (SSW) 3,687 10.1 -13.9°
Drops below altitude 10° 22:48:27 10° 129° (SE) 5,384 10.5 -16.9°
Sets 22:52:08 0° 125° (SE) 6,101 10.7 -17.6°
